This is the latest recevied weather packets stored in our database for station/object DL8GAK-13. If no packets are shown the sender has not sent any weather packets the latest 10 day(s).
| Time | Temp. | Humidity | Pressure | Rain* | Wind** | Luminosity | Snow |
|---|---|---|---|---|---|---|---|
| 1787395167 | 16.67° C | 76% | 1027.4 hPa | - | - | - | - |
| 1787394567 | 17.78° C | 73% | 1027.2 hPa | - | - | - | - |
| 1787393966 | 20.56° C | 73% | 1027.4 hPa | - | - | - | - |
| 1787393365 | 21.11° C | 74% | 1027 hPa | - | - | - | - |
| 1787392765 | 20.56° C | 75% | 1026.9 hPa | - | - | - | - |
| 1787392164 | 20° C | 76% | 1026.9 hPa | - | - | - | - |
| 1787391564 | 19.44° C | 77% | 1026.8 hPa | - | - | - | - |
| 1787390963 | 18.89° C | 78% | 1026.9 hPa | - | - | - | - |
| 1787390455 | 18.33° C | 79% | 1027 hPa | - | - | - | - |
| 1787390362 | 18.33° C | 79% | 1027 hPa | - | - | - | - |
| 1787389762 | 17.78° C | 78% | 1027 hPa | - | - | - | - |
| 1787389161 | 18.33° C | 78% | 1026.9 hPa | - | - | - | - |
| 1787388560 | 19.44° C | 78% | 1026.8 hPa | - | - | - | - |
| 1787387959 | 19.44° C | 79% | 1026.7 hPa | - | - | - | - |
| 1787387359 | 19.44° C | 80% | 1026.7 hPa | - | - | - | - |
| 1787386758 | 18.89° C | 81% | 1026.7 hPa | - | - | - | - |
| 1787386157 | 18.33° C | 82% | 1026.8 hPa | - | - | - | - |
| 1787385556 | 17.78° C | 82% | 1026.8 hPa | - | - | - | - |
| 1787384955 | 17.78° C | 82% | 1026.6 hPa | - | - | - | - |
| 1787384354 | 17.78° C | 83% | 1026.5 hPa | - | - | - | - |
| 1787383753 | 17.78° C | 83% | 1026.4 hPa | - | - | - | - |
| 1787383152 | 17.22° C | 85% | 1026.3 hPa | - | - | - | - |
| 1787382552 | 16.67° C | 85% | 1026.3 hPa | - | - | - | - |
| 1787381951 | 16.11° C | 86% | 1026.3 hPa | - | - | - | - |
| 1787381350 | 16.11° C | 87% | 1026.1 hPa | - | - | - | - |
* Rain since midnight (hover to see other rain measurements)
** Current wind speed in m/s (hover to see current wind gust speed)